SCP
0 0 0 0 0 0 0 0 0 0 0 0 0 0 0 0 0 0 0 0 1 1 1 1 1 1 1 1 1 1 1 0 0 0 0 0 0 0 0 0 0 0 0
0 0 0 0 0 0 0 0 0 0 0 0 0 0 0 0 0 0 0 0 0 1 1 1 2 1 1 1 1 0 0 1 1 0 0 0 0 0 0 0 0 0 0
0 0 0 0 0 0 0 0 0 0 0 0 0 0 0 0 0 0 0 0 0 0 0 0 0 1 1 1 1 0 0 0 0 0 0 0 0 0 0 0 0 0 0
0 0 0 0 0 0 0 0 0 0 0 0 0 0 0 0 0 0 0 0 1 0 0 0 0 0 0 0 0 -0 0 0 0 0 0 0 0 0 0 0 0 0 0
0 0 0 0 0 0 0 0 0 0 0 0 0 0 0 0 0 0 0 0 0 0 1 0 0 0 0 0 0 0 -0 0 0 0 0 0 0 0 0 0 0 0 0
0 0 0 0 0 0 0 0 0 0 0 0 0 0 0 0 0 0 0 0 0 0 0 1 0 0 0 0 -0 -0 -0 -1 -0 0 0 0 0 0 0 0 0 0 0
0 0 0 0 0 0 0 0 0 0 0 0 0 0 0 0 0 0 0 0 0 0 0 0 1 0 0 -0 -0 -0 -0 -0 -0 0 0 0 0 0 0 0 0 0 0
0 0 0 0 0 0 0 0 0 0 0 0 0 0 0 0 0 0 0 0 0 0 0 0 0 0 0 0 0 0 0 0 -0 0 0 0 0 0 0 0 0 0 0
0 0 0 0 0 0 0 0 0 0 0 0 0 0 0 0 0 0 0 0 0 0 0 0 0 0 0 0 0 0 0 0 -0 0 0 0 0 0 0 0 0 0 0
0 0 0 0 0 0 0 0 0 0 0 0 0 0 0 0 0 0 0 0 0 0 0 0 0 0 1 1 0 0 0 0 0 0 0 0 0 0 0 0 0 0 0
0 0 0 0 0 0 0 0 0 0 0 0 0 0 0 0 0 0 0 0 0 0 0 0 0 0 1 0 0 0 0 0 0 0 0 0 0 0 0 -0 -0 -0 0
0 0 0 0 0 0 0 0 0 0 0 0 0 0 0 0 0 0 0 0 0 0 0 0 0 1 0 0 0 0 0 0 0 0 0 0 0 -0 0 0 0 0 0
0 0 0 0 0 0 0 0 0 0 0 0 0 0 0 0 0 0 0 -0 -0 0 0 0 0 0 0 0 0 0 0 0 0 0 0 0 0 0 0 0 0 0 0
0 0 0 0 0 0 0 -0 0 0 0 0 -0 -0 0 0 0 -0 -0 -0 0 0 0 0 0 0 0 0 0 0 0 0 0 0 0 0 0 0 0 0 0 0 0
0 0 0 0 0 0 0 0 0 0 -0 -0 0 -0 0 0 0 -0 -0 -0 -0 0 0 0 0 0 0 0 0 0 0 0 0 0 0 0 0 0 0 0 0 0 0
0 0 0 0 0 0 0 0 0 -0 -0 -0 -0 0 0 0 0 0 -0 -0 0 -0 0 0 0 0 0 0 0 0 0 0 0 0 0 0 0 0 0 0 0 0 0
0 0 0 0 0 -0 0 0 -0 -0 -0 -0 0 0 0 0 0 0 0 0 -0 0 0 0 0 0 0 0 0 0 0 0 0 0 -0 -0 -0 -0 -0 -0 0 0 0
0 0 0 0 -0 0 0 -0 -0 -0 0 0 0 0 0 0 -0 0 0 0 0 0 0 0 0 0 0 0 0 0 0 0 0 -0 -0 -0 -0 -0 -0 -0 -0 0 0
0 0 0 0 0 0 0 -0 0 0 0 0 0 -0 0 0 -0 -0 0 0 0 0 -0 -0 0 0 0 0 0 0 0 0 0 -0 0 -0 -0 -0 -0 -0 -0 -0 0
0 0 0 0 0 0 -0 0 0 0 -0 -0 -0 -0 -0 -0 -0 0 -0 0 0 0 0 0 0 0 0 0 0 0 -0 -0 -0 -0 0 -0 -0 -0 -0 -0 -0 -0 0
0 0 0 -0 -0 -0 0 0 0 -0 -0 -0 -0 0 0 0 0 0 0 0 0 0 0 0 0 0 0 0 0 0 -0 -0 -0 -0 0 0 -0 -0 -0 -0 -0 -0 0
0 0 -0 -0 -0 -0 -0 -0 0 -0 0 0 -0 0 0 0 0 0 0 0 0 0 0 0 0 0 0 0 0 0 -0 -0 0 -0 0 -0 -0 0 0 0 0 0 0
0 -0 -0 -0 0 0 0 -0 0 0 0 0 0 0 -0 0 0 0 -0 0 0 0 0 0 0 0 0 -0 -0 -0 -0 -0 -0 -0 0 0 0 0 0 0 0 0 0
-0 -0 -0 -0 -0 0 -0 0 -0 -0 0 0 0 0 0 0 -0 0 0 0 0 0 0 0 0 -0 -0 -0 -0 -0 -0 -0 0 0 0 0 0 0 0 0 0 0 0
0 0 -0 -0 -0 0 -0 -0 -0 -0 -0 0 0 0 -0 0 -0 -0 -0 0 -0 -0 -0 -0 -0 -0 -0 -0 -0 0 -0 0 0 0 0 0 0 0 0 0 0 0 0
-0 0 -0 -0 -0 0 -0 0 0 0 0 -0 -0 -0 -0 -0 -0 -0 -0 -0 0 0 0 -0 -0 -0 0 0 -0 0 0 0 0 0 0 0 0 0 0 0 0 0 0
Wind_Speed_500mb
31 26 25 25 25 26 28 26 25 29 36 46 42 32 29 31 24 25 30 46 54 52 51 55 55 52 50 49 49 47 44 37 34 30 30 32 37 33 27 26 21 19 18
27 27 29 29 26 28 29 29 29 27 28 35 43 41 39 41 32 30 28 36 50 50 50 56 57 55 55 55 52 51 49 44 38 33 35 40 41 34 30 26 22 19 17
25 27 30 29 27 30 31 29 28 30 28 26 33 42 48 47 47 42 43 37 42 51 62 64 55 53 53 54 51 49 41 49 44 38 38 42 38 34 28 25 21 20 16
24 27 29 28 31 33 34 34 33 31 28 25 26 32 35 51 51 47 46 38 45 47 52 48 49 49 46 55 64 60 28 23 30 34 40 41 38 35 34 27 21 17 16
25 25 27 30 31 34 34 38 39 36 33 29 29 30 32 33 41 43 51 47 37 38 41 47 42 37 38 32 49 51 25 17 33 45 46 43 39 38 35 28 23 18 15
24 26 27 29 32 35 34 39 42 33 30 28 27 29 32 35 35 42 46 49 45 46 44 45 41 39 38 32 32 34 30 25 45 54 51 47 43 41 38 32 21 17 14
26 27 28 29 33 33 31 39 39 32 20 20 27 23 27 29 38 35 38 49 49 54 59 53 45 42 31 31 38 37 38 39 55 62 56 54 48 44 38 26 23 22 17
25 25 28 27 29 26 28 33 31 32 26 18 17 23 17 17 13 24 32 39 47 50 60 58 50 46 35 34 40 37 41 48 59 70 61 54 46 45 38 34 29 22 16
19 25 26 24 25 23 28 29 31 30 31 26 21 19 13 10 19 14 18 26 36 43 51 53 55 55 41 40 43 40 38 42 51 45 43 56 58 48 42 37 29 16 15
22 25 20 22 21 22 24 30 34 34 32 32 30 24 28 29 18 17 11 19 18 23 36 45 49 56 46 37 35 36 38 39 37 41 37 61 41 38 33 23 16 16 15
22 24 25 20 20 22 25 30 33 35 31 28 28 29 28 31 33 40 28 21 17 18 25 35 38 43 41 36 32 28 28 36 41 28 42 39 9 22 22 19 22 18 15
23 24 23 17 18 21 25 28 29 28 23 36 34 32 34 39 41 44 36 33 25 15 16 26 31 46 38 33 26 24 24 33 41 41 32 26 26 27 27 22 21 16 15
26 27 14 15 16 23 24 26 27 30 32 35 38 38 37 27 37 42 33 27 20 18 12 26 34 36 35 31 29 29 33 27 28 29 31 32 33 29 25 23 23 18 21
23 12 14 13 16 21 22 27 23 31 33 36 38 36 38 33 33 26 32 41 20 16 14 17 32 33 30 30 34 32 26 30 38 37 33 33 26 27 23 23 26 28 26
25 21 16 12 13 21 21 27 25 25 32 38 37 42 31 36 4 4 28 26 19 19 19 26 23 26 33 36 38 37 39 41 38 35 32 23 17 19 21 22 20 22 27
24 26 26 13 12 18 21 26 24 25 22 30 33 40 41 58 11 24 11 23 22 22 18 35 33 42 44 44 43 40 38 36 30 25 21 18 16 16 18 20 23 25 27
19 24 27 11 15 16 18 24 28 24 18 16 25 31 39 29 43 31 38 35 30 23 36 37 39 54 42 44 42 38 35 30 26 25 21 16 12 12 14 14 14 18 21
23 19 20 19 17 14 14 19 24 21 15 16 23 26 32 33 36 41 26 32 43 36 37 43 44 47 39 35 33 32 27 25 25 22 18 16 12 10 11 11 12 15 19
26 24 15 18 16 8 7 11 18 20 21 23 25 27 27 29 29 34 29 29 30 33 40 39 41 37 36 32 34 32 30 25 22 20 17 13 9 7 8 9 9 11 14
25 20 10 13 6 1 3 7 10 13 16 21 24 28 27 26 25 22 27 31 28 28 29 31 31 29 26 32 24 23 20 17 16 16 15 18 17 16 15 13 12 13 16
22 17 13 12 6 9 9 6 5 4 9 16 20 20 22 23 23 21 17 18 21 23 22 25 24 24 24 24 22 18 16 14 13 13 13 15 20 21 21 24 24 24 24
25 20 14 11 7 7 10 6 2 6 7 6 9 13 17 16 17 19 16 14 16 18 19 17 17 19 21 18 16 13 10 10 10 9 8 12 17 16 17 19 17 19 26
22 16 15 15 15 8 12 10 8 3 4 3 2 6 10 15 16 10 10 11 12 11 10 12 13 14 13 12 11 8 9 8 6 8 6 9 16 17 20 22 21 19 18
19 14 14 15 13 11 9 8 9 5 3 7 3 4 2 4 13 17 2 5 6 6 6 6 6 6 9 9 8 6 11 14 10 9 8 7 10 13 19 26 23 25 23
20 17 14 18 18 20 20 19 15 14 14 7 10 8 4 8 6 11 9 5 8 7 6 5 4 3 4 9 8 1 1 8 8 6 10 9 12 10 10 13 20 21 27
25 21 12 14 22 22 22 26 26 21 21 19 15 7 9 10 8 9 12 5 3 10 14 15 14 10 7 9 10 8 6 9 7 6 8 7 9 5 8 7 11 17 24
Wind_Direction_500mb
343 350 345 348 347 346 337 335 322 284 264 251 252 257 254 247 249 265 254 247 238 234 231 229 232 232 235 235 235 232 229 232 233 233 226 212 209 216 226 239 241 238 225
351 354 352 347 346 346 343 334 328 318 291 268 253 253 255 257 244 250 253 252 237 237 230 225 224 227 228 231 234 237 235 230 227 227 222 210 209 221 228 237 227 215 208
350 353 352 357 358 355 355 344 329 319 309 289 271 259 254 254 252 245 248 252 245 230 229 227 227 232 236 237 233 231 231 226 224 227 222 212 217 225 224 215 215 207 208
348 350 352 348 348 348 345 342 335 322 308 293 284 272 264 255 254 250 245 246 254 261 246 244 246 242 245 250 247 248 307 230 245 240 228 226 225 219 206 208 204 216 211
340 341 346 345 341 343 343 337 331 320 311 307 289 279 270 265 259 257 251 246 243 240 246 250 251 255 255 258 259 261 257 255 258 246 222 227 218 206 202 206 207 220 207
327 334 337 340 342 344 343 339 335 327 312 308 295 282 278 267 268 256 249 247 248 248 248 243 243 250 255 252 254 247 254 272 241 244 221 216 206 203 201 204 210 208 201
328 327 333 336 341 344 346 344 342 337 320 304 313 307 292 278 265 262 257 250 248 252 254 244 242 240 235 241 244 240 237 230 233 226 209 202 205 200 196 201 204 200 206
321 325 326 330 336 343 348 351 355 352 340 315 306 307 313 310 274 260 255 252 249 246 243 236 234 231 232 226 243 247 239 233 232 232 211 196 198 193 199 191 194 199 215
330 330 323 327 331 336 346 349 347 344 341 330 304 284 301 293 313 276 264 249 244 243 238 237 237 234 234 230 233 244 240 226 229 238 214 195 190 186 182 185 195 197 215
327 327 325 322 326 336 345 345 345 345 338 330 321 287 271 269 275 287 269 257 253 248 233 231 229 228 227 221 229 232 236 225 215 221 187 157 150 174 180 184 189 210 223
326 322 322 322 331 334 339 340 343 340 332 336 325 316 294 278 270 263 268 264 267 260 240 224 217 210 213 221 229 223 217 207 205 213 204 232 209 199 169 188 209 214 237
328 326 322 330 336 335 334 345 351 352 348 354 336 318 298 282 270 252 247 261 259 262 217 212 209 204 209 220 219 207 189 168 181 177 177 203 193 180 180 199 220 235 245
322 324 317 343 343 342 345 348 351 352 351 349 342 331 308 295 311 244 243 252 241 213 199 184 185 198 207 211 197 183 162 154 171 185 172 168 162 176 188 201 220 233 226
336 344 335 352 349 351 355 353 352 351 360 349 354 352 342 312 306 250 226 227 226 183 165 170 187 193 194 184 175 170 177 162 154 155 161 161 166 182 209 232 232 231 223
11 2 342 345 345 351 1 357 352 342 351 350 1 1 352 5 330 203 216 224 210 156 143 163 152 180 179 175 165 154 151 149 148 150 161 177 196 216 231 234 240 228 216
354 343 336 304 322 346 349 348 344 343 338 346 3 17 49 34 45 93 152 207 170 190 141 158 151 153 148 146 149 150 150 149 154 163 181 191 198 213 215 215 212 205 197
343 346 2 341 310 319 332 342 349 353 346 354 8 19 31 34 59 105 75 118 130 178 157 134 155 145 143 145 147 156 153 158 163 161 159 160 159 173 186 192 194 196 205
306 327 333 344 328 318 315 338 5 14 22 22 25 30 39 54 69 69 90 117 115 127 127 118 152 132 137 145 148 155 152 151 153 157 155 157 158 151 158 178 192 201 206
310 300 308 338 336 314 325 3 23 44 52 45 44 43 52 54 73 79 90 99 116 122 122 117 112 130 130 135 142 144 147 154 158 168 174 179 178 182 190 195 190 190 193
309 310 305 322 349 113 322 33 26 48 49 47 50 50 56 62 67 80 84 92 106 110 120 125 133 132 133 141 146 150 155 166 180 196 214 225 228 221 220 214 214 221 218
294 296 271 295 318 234 244 297 321 22 55 50 49 51 52 57 62 74 80 97 102 111 120 130 134 136 140 147 153 159 159 160 187 199 219 236 238 227 233 234 237 242 240
300 278 281 262 263 231 248 272 25 65 58 64 34 40 41 48 52 59 77 93 96 115 123 130 137 153 151 153 165 167 169 176 202 224 238 238 218 218 223 225 235 249 246
283 276 263 234 238 244 232 253 221 136 84 20 24 21 61 49 39 45 69 90 97 106 121 131 148 165 176 178 184 192 211 199 207 257 235 221 216 216 234 243 252 244 249
262 273 251 233 224 227 242 257 249 230 225 267 238 250 159 6 21 26 103 128 128 126 125 115 117 159 191 196 190 233 258 252 256 234 228 220 230 233 253 259 250 241 246
260 266 249 239 242 239 239 247 256 258 241 209 251 297 274 285 327 356 14 234 225 219 211 205 203 220 215 205 191 150 212 176 194 219 268 241 248 245 258 269 272 263 255
258 259 262 260 247 257 251 244 247 246 249 237 232 243 271 278 240 310 358 8 224 246 239 235 234 233 208 194 208 218 209 196 227 275 281 221 231 247 259 283 331 299 273
Wind_Speed_850mb
31 26 25 25 25 26 28 26 25 29 36 46 42 32 29 31 24 25 30 46 54 52 51 55 55 52 50 49 49 47 44 37 34 30 30 32 37 33 27 26 21 19 18
27 27 29 29 26 28 29 29 29 27 28 35 43 41 39 41 32 30 28 36 50 50 50 56 57 55 55 55 52 51 49 44 38 33 35 40 41 34 30 26 22 19 17
25 27 30 29 27 30 31 29 28 30 28 26 33 42 48 47 47 42 43 37 42 51 62 64 55 53 53 54 51 49 41 49 44 38 38 42 38 34 28 25 21 20 16
24 27 29 28 31 33 34 34 33 31 28 25 26 32 35 51 51 47 46 38 45 47 52 48 49 49 46 55 64 60 28 23 30 34 40 41 38 35 34 27 21 17 16
25 25 27 30 31 34 34 38 39 36 33 29 29 30 32 33 41 43 51 47 37 38 41 47 42 37 38 32 49 51 25 17 33 45 46 43 39 38 35 28 23 18 15
24 26 27 29 32 35 34 39 42 33 30 28 27 29 32 35 35 42 46 49 45 46 44 45 41 39 38 32 32 34 30 25 45 54 51 47 43 41 38 32 21 17 14
26 27 28 29 33 33 31 39 39 32 20 20 27 23 27 29 38 35 38 49 49 54 59 53 45 42 31 31 38 37 38 39 55 62 56 54 48 44 38 26 23 22 17
25 25 28 27 29 26 28 33 31 32 26 18 17 23 17 17 13 24 32 39 47 50 60 58 50 46 35 34 40 37 41 48 59 70 61 54 46 45 38 34 29 22 16
19 25 26 24 25 23 28 29 31 30 31 26 21 19 13 10 19 14 18 26 36 43 51 53 55 55 41 40 43 40 38 42 51 45 43 56 58 48 42 37 29 16 15
22 25 20 22 21 22 24 30 34 34 32 32 30 24 28 29 18 17 11 19 18 23 36 45 49 56 46 37 35 36 38 39 37 41 37 61 41 38 33 23 16 16 15
22 24 25 20 20 22 25 30 33 35 31 28 28 29 28 31 33 40 28 21 17 18 25 35 38 43 41 36 32 28 28 36 41 28 42 39 9 22 22 19 22 18 15
23 24 23 17 18 21 25 28 29 28 23 36 34 32 34 39 41 44 36 33 25 15 16 26 31 46 38 33 26 24 24 33 41 41 32 26 26 27 27 22 21 16 15
26 27 14 15 16 23 24 26 27 30 32 35 38 38 37 27 37 42 33 27 20 18 12 26 34 36 35 31 29 29 33 27 28 29 31 32 33 29 25 23 23 18 21
23 12 14 13 16 21 22 27 23 31 33 36 38 36 38 33 33 26 32 41 20 16 14 17 32 33 30 30 34 32 26 30 38 37 33 33 26 27 23 23 26 28 26
25 21 16 12 13 21 21 27 25 25 32 38 37 42 31 36 4 4 28 26 19 19 19 26 23 26 33 36 38 37 39 41 38 35 32 23 17 19 21 22 20 22 27
24 26 26 13 12 18 21 26 24 25 22 30 33 40 41 58 11 24 11 23 22 22 18 35 33 42 44 44 43 40 38 36 30 25 21 18 16 16 18 20 23 25 27
19 24 27 11 15 16 18 24 28 24 18 16 25 31 39 29 43 31 38 35 30 23 36 37 39 54 42 44 42 38 35 30 26 25 21 16 12 12 14 14 14 18 21
23 19 20 19 17 14 14 19 24 21 15 16 23 26 32 33 36 41 26 32 43 36 37 43 44 47 39 35 33 32 27 25 25 22 18 16 12 10 11 11 12 15 19
26 24 15 18 16 8 7 11 18 20 21 23 25 27 27 29 29 34 29 29 30 33 40 39 41 37 36 32 34 32 30 25 22 20 17 13 9 7 8 9 9 11 14
25 20 10 13 6 1 3 7 10 13 16 21 24 28 27 26 25 22 27 31 28 28 29 31 31 29 26 32 24 23 20 17 16 16 15 18 17 16 15 13 12 13 16
22 17 13 12 6 9 9 6 5 4 9 16 20 20 22 23 23 21 17 18 21 23 22 25 24 24 24 24 22 18 16 14 13 13 13 15 20 21 21 24 24 24 24
25 20 14 11 7 7 10 6 2 6 7 6 9 13 17 16 17 19 16 14 16 18 19 17 17 19 21 18 16 13 10 10 10 9 8 12 17 16 17 19 17 19 26
22 16 15 15 15 8 12 10 8 3 4 3 2 6 10 15 16 10 10 11 12 11 10 12 13 14 13 12 11 8 9 8 6 8 6 9 16 17 20 22 21 19 18
19 14 14 15 13 11 9 8 9 5 3 7 3 4 2 4 13 17 2 5 6 6 6 6 6 6 9 9 8 6 11 14 10 9 8 7 10 13 19 26 23 25 23
20 17 14 18 18 20 20 19 15 14 14 7 10 8 4 8 6 11 9 5 8 7 6 5 4 3 4 9 8 1 1 8 8 6 10 9 12 10 10 13 20 21 27
25 21 12 14 22 22 22 26 26 21 21 19 15 7 9 10 8 9 12 5 3 10 14 15 14 10 7 9 10 8 6 9 7 6 8 7 9 5 8 7 11 17 24
Wind_Direction_850mb
343 350 345 348 347 346 337 335 322 284 264 251 252 257 254 247 249 265 254 247 238 234 231 229 232 232 235 235 235 232 229 232 233 233 226 212 209 216 226 239 241 238 225
351 354 352 347 346 346 343 334 328 318 291 268 253 253 255 257 244 250 253 252 237 237 230 225 224 227 228 231 234 237 235 230 227 227 222 210 209 221 228 237 227 215 208
350 353 352 357 358 355 355 344 329 319 309 289 271 259 254 254 252 245 248 252 245 230 229 227 227 232 236 237 233 231 231 226 224 227 222 212 217 225 224 215 215 207 208
348 350 352 348 348 348 345 342 335 322 308 293 284 272 264 255 254 250 245 246 254 261 246 244 246 242 245 250 247 248 307 230 245 240 228 226 225 219 206 208 204 216 211
340 341 346 345 341 343 343 337 331 320 311 307 289 279 270 265 259 257 251 246 243 240 246 250 251 255 255 258 259 261 257 255 258 246 222 227 218 206 202 206 207 220 207
327 334 337 340 342 344 343 339 335 327 312 308 295 282 278 267 268 256 249 247 248 248 248 243 243 250 255 252 254 247 254 272 241 244 221 216 206 203 201 204 210 208 201
328 327 333 336 341 344 346 344 342 337 320 304 313 307 292 278 265 262 257 250 248 252 254 244 242 240 235 241 244 240 237 230 233 226 209 202 205 200 196 201 204 200 206
321 325 326 330 336 343 348 351 355 352 340 315 306 307 313 310 274 260 255 252 249 246 243 236 234 231 232 226 243 247 239 233 232 232 211 196 198 193 199 191 194 199 215
330 330 323 327 331 336 346 349 347 344 341 330 304 284 301 293 313 276 264 249 244 243 238 237 237 234 234 230 233 244 240 226 229 238 214 195 190 186 182 185 195 197 215
327 327 325 322 326 336 345 345 345 345 338 330 321 287 271 269 275 287 269 257 253 248 233 231 229 228 227 221 229 232 236 225 215 221 187 157 150 174 180 184 189 210 223
326 322 322 322 331 334 339 340 343 340 332 336 325 316 294 278 270 263 268 264 267 260 240 224 217 210 213 221 229 223 217 207 205 213 204 232 209 199 169 188 209 214 237
328 326 322 330 336 335 334 345 351 352 348 354 336 318 298 282 270 252 247 261 259 262 217 212 209 204 209 220 219 207 189 168 181 177 177 203 193 180 180 199 220 235 245
322 324 317 343 343 342 345 348 351 352 351 349 342 331 308 295 311 244 243 252 241 213 199 184 185 198 207 211 197 183 162 154 171 185 172 168 162 176 188 201 220 233 226
336 344 335 352 349 351 355 353 352 351 360 349 354 352 342 312 306 250 226 227 226 183 165 170 187 193 194 184 175 170 177 162 154 155 161 161 166 182 209 232 232 231 223
11 2 342 345 345 351 1 357 352 342 351 350 1 1 352 5 330 203 216 224 210 156 143 163 152 180 179 175 165 154 151 149 148 150 161 177 196 216 231 234 240 228 216
354 343 336 304 322 346 349 348 344 343 338 346 3 17 49 34 45 93 152 207 170 190 141 158 151 153 148 146 149 150 150 149 154 163 181 191 198 213 215 215 212 205 197
343 346 2 341 310 319 332 342 349 353 346 354 8 19 31 34 59 105 75 118 130 178 157 134 155 145 143 145 147 156 153 158 163 161 159 160 159 173 186 192 194 196 205
306 327 333 344 328 318 315 338 5 14 22 22 25 30 39 54 69 69 90 117 115 127 127 118 152 132 137 145 148 155 152 151 153 157 155 157 158 151 158 178 192 201 206
310 300 308 338 336 314 325 3 23 44 52 45 44 43 52 54 73 79 90 99 116 122 122 117 112 130 130 135 142 144 147 154 158 168 174 179 178 182 190 195 190 190 193
309 310 305 322 349 113 322 33 26 48 49 47 50 50 56 62 67 80 84 92 106 110 120 125 133 132 133 141 146 150 155 166 180 196 214 225 228 221 220 214 214 221 218
294 296 271 295 318 234 244 297 321 22 55 50 49 51 52 57 62 74 80 97 102 111 120 130 134 136 140 147 153 159 159 160 187 199 219 236 238 227 233 234 237 242 240
300 278 281 262 263 231 248 272 25 65 58 64 34 40 41 48 52 59 77 93 96 115 123 130 137 153 151 153 165 167 169 176 202 224 238 238 218 218 223 225 235 249 246
283 276 263 234 238 244 232 253 221 136 84 20 24 21 61 49 39 45 69 90 97 106 121 131 148 165 176 178 184 192 211 199 207 257 235 221 216 216 234 243 252 244 249
262 273 251 233 224 227 242 257 249 230 225 267 238 250 159 6 21 26 103 128 128 126 125 115 117 159 191 196 190 233 258 252 256 234 228 220 230 233 253 259 250 241 246
260 266 249 239 242 239 239 247 256 258 241 209 251 297 274 285 327 356 14 234 225 219 211 205 203 220 215 205 191 150 212 176 194 219 268 241 248 245 258 269 272 263 255
258 259 262 260 247 257 251 244 247 246 249 237 232 243 271 278 240 310 358 8 224 246 239 235 234 233 208 194 208 218 209 196 227 275 281 221 231 247 259 283 331 299 273